Simultaneous Nadir Overpasses (SNOs) Predictions

Prediction of SNOs between GOES-16 and NPP Satellite Orbit:

Table of predicted SNOs for the next 14.0 days since TLE Epoch: 10/5/2024
Index Date Time (GOES-16) GOES-16 Lat,Lon NPP Lat,Lon Distance(km) Time Diff (sec)
1 10/05/2024 18:32:17 -0.06, -75.21 -0.49, -77.14 219.88 80
2 10/06/2024 18:16:09 -0.06, -75.21 0.53, -72.60 298.17 80
3 10/08/2024 06:35:12 0.05, -75.21 0.66, -77.85 301.04 80
4 10/09/2024 06:19:05 0.05, -75.21 -0.37, -73.30 217.08 80
5 10/10/2024 18:38:16 -0.05, -75.22 -0.80, -78.59 383.74 80
6 10/11/2024 18:22:09 -0.04, -75.23 0.24, -74.05 134.77 80
7 10/13/2024 06:41:11 0.03, -75.23 0.96, -79.29 463.37 80
8 10/14/2024 06:25:04 0.03, -75.24 -0.10, -74.76 55.71 80
9 10/16/2024 18:25:25 -0.03, -75.28 -0.07, -75.49 23.96 80
10 10/17/2024 18:09:17 -0.04, -75.29 0.95, -70.94 495.83 80
